User: anonymous   Login
Location: Unspecified
(0.0000°N, 0.0000°E)
Time: 14:33:12
(UTC+00:00)
Language:

JAS-1B - Orbit

View from above orbital plane
View from above orbital plane
View from above satellite
View from above satellite

Ground track
Ground track

The orbit data is extracted from the following two-line orbital elements,

1 20480U 90013C   17084.91179525 -.00000019 +00000-0 +33104-4 0  9992
2 20480 099.0387 233.7249 0539750 219.5479 136.5050 12.83415445270992
Epoch (UTC): 25 March 2017 21:52:59
Eccentricity: 0.0539750
inclination: 99.0387°
perigee height: 912 km
apogee height: 1743 km
right ascension of ascending node: 233.7249°
argument of perigee: 219.5479°
revolutions per day: 12.83415445
mean anomaly at epoch: 136.5050°
orbit number at epoch: 27099

The dashed part of the orbit path shows where the satellite is in the earth's shadow,  

DLR